Simultaneous Nadir Overpasses (SNOs) Predictions

Prediction of SNOs between GOES-15 and TERRA Satellite Orbit:

Table of predicted SNOs for the next 14.0 days since TLE Epoch: 8/26/2022
Index Date Time (GOES-15) GOES-15 Lat,Lon TERRA Lat,Lon Distance(km) Time Diff (sec)
1 08/27/2022 18:37:06 -0.21,-128.02 -0.86,-125.00 343.21 80
2 08/28/2022 06:55:50 0.24,-127.95 -0.21,-130.20 255.79 80
3 08/30/2022 06:46:15 0.24,-127.92 0.40,-127.25 77.14 80
4 09/01/2022 06:34:00 0.23,-127.89 1.02,-124.29 409.49 80
5 09/01/2022 18:52:35 -0.26,-127.93 0.05,-129.45 172.37 80
6 09/03/2022 18:43:00 -0.25,-127.89 -0.57,-126.50 159.00 80
7 09/04/2022 07:01:43 0.27,-127.83 -0.56,-131.69 439.07 80
8 09/05/2022 18:30:44 -0.24,-127.84 -1.13,-123.53 489.58 80
9 09/06/2022 06:49:28 0.26,-127.77 0.07,-128.73 108.79 80
10 09/08/2022 06:39:52 0.26,-127.72 0.65,-125.77 221.17 80
11 09/08/2022 18:58:27 -0.28,-127.75 0.36,-130.94 362.65 80
